Regional Weather Roundup
Issued by NWS

Home | Current Version | Previous Version | Text Only | Print | Product List | Glossary Off
Versions: 1 2 3 4 5 6 7 8 9 10 11 12 13 14 15 16 17 18 19 20 21 22 23 24 25 26 27 28 29 30 31 32 33 34 35 36 37 38 39 40 41 42 43 44 45 46 47 48 49 50

000
ASUS43 KLOT 050408
RWRIL

ILLINOIS REGIONAL WEATHER ROUNDUP
NATIONAL WEATHER SERVICE CHICAGO/ROMEOVILLE IL
1100 PM CDT SAT JUL 04 2015

NOTE: "FAIR" INDICATES FEW OR NO CLOUDS BELOW 12,000 FEET WITH NO
SIGNIFICANT WEATHER AND/OR OBSTRUCTIONS TO VISIBILITY.

* THESE STATIONS ARE NOT UNDER NWS QUALITY CONTROL. THEY ALSO MAY NOT
  REPORT WEATHER SUCH AS PRECIPITATION OR FOG.

ILZ001-002-007-009-015-016-024-050500-
NORTHWEST ILLINOIS

CITY           SKY/WX    TMP DP  RH WIND       PRES   REMARKS
MOLINE         CLEAR     67  61  81 CALM      30.01S
STERLING*      CLEAR     70  63  78 S6        30.03R
SAVANNA*       CLEAR     67  62  83 CALM      30.02R
$$

ILZ003-004-008-010-011-017-018-050500-
NORTH CENTRAL ILLINOIS

CITY           SKY/WX    TMP DP  RH WIND       PRES   REMARKS
ROCKFORD       PTCLDY    67  61  81 CALM      30.03S
FREEPORT*      CLEAR     64  61  90 S6        30.04R
ROCHELLE*      CLEAR     63  61  95 CALM      30.04R
DE KALB*       CLEAR     63  58  86 S6        30.04S
PERU*          CLEAR     70  61  73 S3        30.04S
$$

ILZ005-006-012>014-019>023-050500-
NORTHEAST ILLINOIS

CITY           SKY/WX    TMP DP  RH WIND       PRES   REMARKS
CHICAGO-OHARE  PTCLDY    67  57  70 SE6       30.03R SMOKE
CHICAGO-MIDWAY PTCLDY    73  58  59 CALM      30.03R SMOKE
AURORA         CLEAR     68  58  70 CALM      30.04R
LANSING*       CLEAR     65  59  81 CALM      30.03S
JOLIET*        CLEAR     65  62  91 CALM      30.03S
WAUKEGAN       CLEAR     62  55  77 CALM      30.03R HAZE
DUPAGE AIRPORT CLEAR     67  60  78 CALM      30.03R
KANKAKEE*      CLEAR     66  64  93 CALM      30.05R
WHEELING       CLEAR     66  56  70 CALM      30.05R
MORRIS*        CLEAR     69  63  81 CALM      30.01S
ROMEOVILLE*    CLEAR     67  59  76 S3        30.04R HAZE
NORTHERLY ISL    N/A     66  59  78 CALM        N/A
$$

LMZ740>746-050500-
SOUTHERN LAKE MICHIGAN

STATION/POSITION SKY/WX   TEMP    WIND        PRES    VSBY  WAVE
                          AIR SEA DIR/SP/G                  HT/PER
                          (F)     (DEG/KT/KT) (MB)    (MI)  (FT/S)
HARRISON CRIB              68     180/  7/  7   N/A
BURNHAM HARBOR             66      CALM  /  2   N/A
CALUMET HARBOR             70     110/  3/  4   N/A
BURNS HARBOR               74     170/  4/  7 1017.3R
MICHIGAN CITY              71     110/  5/  6   N/A
MICHIGAN CITY 6N           66 65  100/  2/  4   N/A           0
ST. JOSEPH                 66 65                N/A           0
$$

ILZ025>027-034>036-040-047-049-050-058-095>099-050500-
WEST-CENTRAL ILLINOIS

CITY           SKY/WX    TMP DP  RH WIND       PRES   REMARKS
QUINCY         CLEAR     69  65  86 SE5       30.02R
GALESBURG*     CLEAR     62  60  93 CALM      30.03S
MACOMB*        CLEAR     64  63  97 SE3       30.04S
JACKSONVILLE*  CLEAR     70  66  88 SE3       30.03R
PITTSFIELD*    CLEAR     69  65  88 CALM      30.04R
$$

ILZ028>032-037-038-041>044-048-051>054-059>061-050500-
CENTRAL ILLINOIS

CITY           SKY/WX    TMP DP  RH WIND       PRES   REMARKS
PONTIAC        CLEAR     65  64  94 SE3       30.05R
BLOOMINGTON    CLEAR     69  63  81 S3        30.06R
DECATUR        CLEAR     65  63  93 CALM      30.04S
PEORIA         CLEAR     69  62  78 NE3       30.03R HAZE
LACON*         CLEAR     64  61  89 CALM      30.03R
LINCOLN*       CLEAR     67  63  87 CALM      30.04R
SPRINGFIELD    CLEAR     71  63  75 CALM      30.03R
TAYLORVILLE    CLEAR     63  63 100 CALM      30.03S FOG
$$

ILZ033-039-045-046-055>057-062-063-050500-
EAST-CENTRAL ILLINOIS

CITY           SKY/WX    TMP DP  RH WIND       PRES   REMARKS
CHAMPAIGN      CLEAR     64  61  90 CALM      30.05R
DANVILLE*      CLEAR     62  61  95 CALM      30.03R
RANTOUL*       CLEAR     68  65  89 CALM      30.05S
MATTOON        CLEAR     68  63  84 CALM      30.03S
PARIS*         PTCLDY    64  63  96 CALM      30.05S
$$

ILZ079-100>102-050500-
SOUTHWEST ILLINOIS

CITY           SKY/WX    TMP DP  RH WIND       PRES   REMARKS
ALTON          CLEAR     66  66 100 CALM      30.03R FOG
BELLEVILLE     CLEAR     68  68  99 CALM      30.02R
CAHOKIA*       CLEAR     69  66  90 CALM      30.02R
SPARTA*        PTCLDY    71  64  78 CALM      30.04R
$$

ILZ064>066-069>071-074>076-080>082-084>086-088>090-092>094-050500-
SOUTH-CENTRAL ILLINOIS

CITY           SKY/WX    TMP DP  RH WIND       PRES   REMARKS
CARBONDALE     MOCLDY    71  68  90 CALM      30.03R
CAIRO*         MOCLDY    72  72  99 CALM      30.02S FOG
EFFINGHAM*     PTCLDY    67  64  88 CALM      30.05R
MARION         MOCLDY    70  68  94 CALM      30.04R FOG
MT. VERNON     PTCLDY    66  63  88 CALM      30.04R
CENTRALIA*     PTCLDY    67  65  92 CALM      30.04R FOG
SALEM*         PTCLDY    68  65  90 CALM      30.03S
$$

ILZ067-068-072-073-078-083-087-091-050500-
SOUTHEAST ILLINOIS

CITY           SKY/WX    TMP DP  RH WIND       PRES   REMARKS
LAWRENCEVILLE  MOCLDY    70  66  87 NE5       30.03R
FLORA*         MOCLDY    68  67  95 CALM      30.04R FOG
FAIRFIELD*     PTCLDY    69  67  95 CALM      30.02R
HARRISBURG*    MOCLDY    69  69 100 CALM      30.04R FOG
ROBINSON*      PTCLDY    67  66  96 CALM      30.04R FOG
CARMI*         MOCLDY    71  66  83 CALM      30.02R HAZE
$$

ABBREVIATIONS USED IN REMARKS
   TC - TEMPERATURE IN CELSIUS
  WCI - WIND CHILL INDEX
   HX - HEAT INDEX
  VSB - VISIBILITY
$$



USA.gov is the U.S. government's official web portal to all federal, state and local government web resources and services.